Simultaneous Nadir Overpasses (SNOs) Predictions

Prediction of SNOs between METOP-A and NPP Satellite Orbit:

Table of predicted SNOs for the next 14.0 days since TLE Epoch: 6/26/2021
Index Date (METOP-A) Time (METOP-A) Lat,Lon (METOP-A) SZA (METOP-A ) Date (NPP) Time (NPP) Lat,Lon (NPP) SZA (NPP ) Distance(km) Time Diff (sec)
1 07/09/2021 22:21:17 77.21,-173.36 55.72 07/09/2021 22:20:09 77.22,-176.18 56.00 69.43 68
2 07/09/2021 23:12:01 -77.11, -6.45 124.35 07/09/2021 23:10:51 -77.11, -8.40 124.15 48.25 70
3 07/10/2021 00:02:46 76.88, 159.99 55.53 07/10/2021 00:01:31 76.87, 159.89 55.56 2.72 75
4 07/10/2021 00:53:28 -76.86, -32.74 124.48 07/10/2021 00:52:15 -76.85, -32.71 124.47 1.93 73



Historial Predications of SNOs between METOP-A and NPP
